Time,TemperatureF,DewpointF,PressureIn,WindDirection,WindDirectionDegrees,WindSpeedMPH,WindSpeedGustMPH,Humidity,HourlyPrecipIn,Conditions,Clouds,dailyrainin,SoftwareType,DateUTC
2013-02-20 00:13:00,66.8,65.0,30.11,SSE,160,0.0,1.0,95,0.00,,,0.00,weatherlink.com 1.10,2013-02-20 05:13:00,
2013-02-20 00:28:00,66.8,65.0,30.10,SSE,156,0.0,0.0,95,0.00,,,0.00,weatherlink.com 1.10,2013-02-20 05:28:00,
2013-02-20 00:43:00,66.5,65.0,30.09,SSE,156,0.0,0.0,95,0.00,,,0.00,weatherlink.com 1.10,2013-02-20 05:43:00,
2013-02-20 00:58:00,65.8,64.0,30.09,SSE,158,0.0,0.0,95,0.00,,,0.00,weatherlink.com 1.10,2013-02-20 05:58:00,
2013-02-20 01:13:00,65.6,65.0,30.09,SSE,158,0.0,0.0,96,0.00,,,0.00,weatherlink.com 1.10,2013-02-20 06:13:00,
2013-02-20 01:28:00,65.7,65.0,30.09,South,188,0.0,1.0,96,0.00,,,0.00,weatherlink.com 1.10,2013-02-20 06:28:00,
2013-02-20 01:43:00,65.8,65.0,30.09,SSW,204,0.0,1.0,96,0.00,,,0.00,weatherlink.com 1.10,2013-02-20 06:43:00,
2013-02-20 01:58:00,65.6,65.0,30.09,West,266,0.0,1.0,96,0.00,,,0.00,weatherlink.com 1.10,2013-02-20 06:58:00,
2013-02-20 02:13:00,65.1,64.0,30.08,West,266,0.0,0.0,96,0.01,,,0.01,weatherlink.com 1.10,2013-02-20 07:13:00,
2013-02-20 02:28:00,64.5,63.0,30.08,West,266,0.0,0.0,96,0.01,,,0.01,weatherlink.com 1.10,2013-02-20 07:28:00,
2013-02-20 02:43:00,64.3,63.0,30.08,WSW,257,0.0,0.0,96,0.01,,,0.01,weatherlink.com 1.10,2013-02-20 07:43:00,
2013-02-20 02:58:00,64.2,63.0,30.08,WSW,257,0.0,1.0,96,0.01,,,0.01,weatherlink.com 1.10,2013-02-20 07:58:00,
2013-02-20 03:13:00,63.9,63.0,30.07,WSW,257,0.0,0.0,97,0.00,,,0.01,weatherlink.com 1.10,2013-02-20 08:13:00,
2013-02-20 03:28:00,63.5,63.0,30.07,WSW,257,0.0,0.0,97,0.00,,,0.01,weatherlink.com 1.10,2013-02-20 08:28:00,
2013-02-20 03:43:00,63.4,63.0,30.07,WSW,257,0.0,0.0,97,0.00,,,0.01,weatherlink.com 1.10,2013-02-20 08:43:00,
2013-02-20 03:58:00,63.3,63.0,30.07,WSW,257,0.0,0.0,97,0.00,,,0.01,weatherlink.com 1.10,2013-02-20 08:58:00,
2013-02-20 04:13:00,63.0,62.0,30.07,WSW,257,0.0,0.0,97,0.00,,,0.01,weatherlink.com 1.10,2013-02-20 09:13:00,
2013-02-20 04:28:00,62.8,62.0,30.08,WSW,257,0.0,0.0,97,0.00,,,0.01,weatherlink.com 1.10,2013-02-20 09:28:00,
2013-02-20 04:43:00,62.8,62.0,30.07,WSW,257,0.0,0.0,97,0.00,,,0.01,weatherlink.com 1.10,2013-02-20 09:43:00,
2013-02-20 04:58:00,62.5,62.0,30.08,WSW,257,0.0,0.0,97,0.00,,,0.01,weatherlink.com 1.10,2013-02-20 09:58:00,
2013-02-20 05:13:00,62.8,62.0,30.09,WSW,257,0.0,0.0,97,0.00,,,0.01,weatherlink.com 1.10,2013-02-20 10:13:00,
2013-02-20 05:28:00,63.2,62.0,30.08,West,263,0.0,0.0,97,0.00,,,0.01,weatherlink.com 1.10,2013-02-20 10:28:00,
2013-02-20 05:43:00,63.4,63.0,30.07,WSW,246,0.0,0.0,97,0.00,,,0.01,weatherlink.com 1.10,2013-02-20 10:43:00,
2013-02-20 05:58:00,62.6,62.0,30.08,WSW,246,0.0,0.0,97,0.00,,,0.01,weatherlink.com 1.10,2013-02-20 10:58:00,
2013-02-20 06:13:00,61.9,61.0,30.09,WSW,246,0.0,0.0,97,0.00,,,0.01,weatherlink.com 1.10,2013-02-20 11:13:00,
2013-02-20 06:28:00,61.5,61.0,30.09,WSW,246,0.0,0.0,97,0.00,,,0.01,weatherlink.com 1.10,2013-02-20 11:28:00,
2013-02-20 06:43:00,61.3,61.0,30.10,WSW,246,0.0,0.0,97,0.00,,,0.01,weatherlink.com 1.10,2013-02-20 11:43:00,
2013-02-20 06:58:00,61.3,61.0,30.10,WSW,246,0.0,1.0,98,0.00,,,0.01,weatherlink.com 1.10,2013-02-20 11:58:00,
2013-02-20 07:13:00,61.4,61.0,30.10,WSW,246,0.0,0.0,97,0.00,,,0.01,weatherlink.com 1.10,2013-02-20 12:13:00,
2013-02-20 07:28:00,61.9,61.0,30.11,WSW,246,0.0,0.0,97,0.00,,,0.01,weatherlink.com 1.10,2013-02-20 12:28:00,
2013-02-20 07:43:00,63.5,63.0,30.12,WSW,243,0.0,1.0,97,0.00,,,0.01,weatherlink.com 1.10,2013-02-20 12:43:00,
2013-02-20 07:58:00,64.6,64.0,30.12,WSW,243,0.0,0.0,96,0.00,,,0.01,weatherlink.com 1.10,2013-02-20 12:58:00,
2013-02-20 08:13:00,66.0,65.0,30.11,SW,229,0.0,0.0,96,0.00,,,0.01,weatherlink.com 1.10,2013-02-20 13:13:00,
2013-02-20 08:28:00,67.5,66.0,30.12,SW,221,0.0,2.0,94,0.00,,,0.01,weatherlink.com 1.10,2013-02-20 13:28:00,
2013-02-20 08:44:00,68.7,66.0,30.12,SW,215,0.0,1.0,92,0.00,,,0.01,weatherlink.com 1.10,2013-02-20 13:44:00,
2013-02-20 08:59:00,69.8,66.0,30.12,West,260,0.0,1.0,87,0.00,,,0.01,weatherlink.com 1.10,2013-02-20 13:59:00,
2013-02-20 09:14:00,71.5,66.0,30.12,SSW,207,0.0,2.0,83,0.00,,,0.01,weatherlink.com 1.10,2013-02-20 14:14:00,
2013-02-20 09:29:00,73.6,66.0,30.13,NNE,22,0.0,1.0,76,0.00,,,0.01,weatherlink.com 1.10,2013-02-20 14:29:00,
2013-02-20 09:44:00,74.5,65.0,30.13,SW,218,0.0,3.0,73,0.00,,,0.01,weatherlink.com 1.10,2013-02-20 14:44:00,
2013-02-20 09:59:00,75.5,67.0,30.12,SSW,211,0.0,2.0,74,0.00,,,0.01,weatherlink.com 1.10,2013-02-20 14:59:00,
2013-02-20 10:14:00,76.1,64.0,30.12,WNW,284,1.0,2.0,66,0.00,,,0.01,weatherlink.com 1.10,2013-02-20 15:14:00,
2013-02-20 10:29:00,76.7,66.0,30.12,SW,226,0.0,2.0,70,0.00,,,0.01,weatherlink.com 1.10,2013-02-20 15:29:00,
2013-02-20 10:44:00,77.1,67.0,30.12,WNW,290,0.0,3.0,72,0.00,,,0.01,weatherlink.com 1.10,2013-02-20 15:44:00,
2013-02-20 10:59:00,77.6,68.0,30.12,SSW,201,2.0,3.0,72,0.00,,,0.01,weatherlink.com 1.10,2013-02-20 15:59:00,
2013-02-20 11:14:00,77.5,67.0,30.11,ESE,106,0.0,4.0,71,0.00,,,0.01,weatherlink.com 1.10,2013-02-20 16:14:00,
2013-02-20 11:29:00,78.1,68.0,30.11,WSW,253,0.0,3.0,71,0.00,,,0.01,weatherlink.com 1.10,2013-02-20 16:29:00,
2013-02-20 11:44:00,77.9,68.0,30.11,ESE,119,0.0,3.0,71,0.00,,,0.01,weatherlink.com 1.10,2013-02-20 16:44:00,
2013-02-20 11:59:00,78.7,68.0,30.11,SSW,200,0.0,1.0,70,0.00,,,0.01,weatherlink.com 1.10,2013-02-20 16:59:00,
2013-02-20 12:14:00,78.6,68.0,30.11,NW,304,1.0,2.0,70,0.00,,,0.01,weatherlink.com 1.10,2013-02-20 17:14:00,
2013-02-20 12:29:00,78.8,68.0,30.10,ESE,108,0.0,4.0,70,0.00,,,0.01,weatherlink.com 1.10,2013-02-20 17:29:00,
2013-02-20 12:44:00,78.8,68.0,30.10,SW,235,0.0,2.0,69,0.00,,,0.01,weatherlink.com 1.10,2013-02-20 17:44:00,
2013-02-20 12:59:00,79.0,67.0,30.10,NE,43,0.0,2.0,67,0.00,,,0.01,weatherlink.com 1.10,2013-02-20 17:59:00,
2013-02-20 13:14:00,79.3,67.0,30.09,ESE,117,0.0,2.0,66,0.00,,,0.01,weatherlink.com 1.10,2013-02-20 18:14:00,
2013-02-20 13:29:00,79.5,67.0,30.08,NW,316,0.0,2.0,65,0.00,,,0.01,weatherlink.com 1.10,2013-02-20 18:29:00,
2013-02-20 13:44:00,79.0,68.0,30.06,WSW,255,0.0,3.0,69,0.00,,,0.01,weatherlink.com 1.10,2013-02-20 18:44:00,
2013-02-20 13:59:00,78.5,67.0,30.04,ENE,74,1.0,2.0,68,0.00,,,0.01,weatherlink.com 1.10,2013-02-20 18:59:00,
2013-02-20 14:14:00,77.5,67.0,30.05,NNE,31,1.0,3.0,70,0.00,,,0.01,weatherlink.com 1.10,2013-02-20 19:14:00,
2013-02-20 14:29:00,77.1,67.0,30.04,East,83,0.0,2.0,72,0.00,,,0.01,weatherlink.com 1.10,2013-02-20 19:29:00,
2013-02-20 14:44:00,76.8,68.0,30.04,ENE,58,1.0,2.0,73,0.00,,,0.01,weatherlink.com 1.10,2013-02-20 19:44:00,
2013-02-20 14:59:00,76.8,67.0,30.04,NE,56,0.0,2.0,72,0.00,,,0.01,weatherlink.com 1.10,2013-02-20 19:59:00,
2013-02-20 15:14:00,76.1,67.0,30.04,East,79,1.0,4.0,74,0.00,,,0.01,weatherlink.com 1.10,2013-02-20 20:14:00,
2013-02-20 15:29:00,75.7,66.0,30.03,East,93,1.0,3.0,73,0.00,,,0.01,weatherlink.com 1.10,2013-02-20 20:29:00,
2013-02-20 15:44:00,75.7,67.0,30.02,East,85,1.0,3.0,74,0.00,,,0.01,weatherlink.com 1.10,2013-02-20 20:44:00,
2013-02-20 15:59:00,75.3,67.0,30.02,East,90,0.0,4.0,74,0.00,,,0.01,weatherlink.com 1.10,2013-02-20 20:59:00,
2013-02-20 16:14:00,75.0,67.0,30.03,NE,45,1.0,5.0,75,0.00,,,0.01,weatherlink.com 1.10,2013-02-20 21:14:00,
2013-02-20 16:29:00,75.0,67.0,30.03,East,82,0.0,5.0,75,0.00,,,0.01,weatherlink.com 1.10,2013-02-20 21:29:00,
2013-02-20 16:44:00,74.8,66.0,30.03,NE,46,1.0,4.0,75,0.00,,,0.01,weatherlink.com 1.10,2013-02-20 21:44:00,
2013-02-20 16:59:00,74.5,66.0,30.03,ENE,68,1.0,3.0,74,0.00,,,0.01,weatherlink.com 1.10,2013-02-20 21:59:00,
2013-02-20 17:14:00,74.3,66.0,30.04,ENE,61,2.0,2.0,74,0.00,,,0.01,weatherlink.com 1.10,2013-02-20 22:14:00,
2013-02-20 17:29:00,74.3,65.0,30.03,ENE,63,0.0,4.0,73,0.00,,,0.01,weatherlink.com 1.10,2013-02-20 22:29:00,
2013-02-20 17:44:00,74.0,65.0,30.04,ENE,70,0.0,1.0,73,0.00,,,0.01,weatherlink.com 1.10,2013-02-20 22:44:00,
2013-02-20 17:59:00,73.5,66.0,30.05,ENE,67,0.0,1.0,76,0.00,,,0.01,weatherlink.com 1.10,2013-02-20 22:59:00,
2013-02-20 18:15:00,73.0,65.0,30.05,ENE,71,0.0,1.0,76,0.00,,,0.01,weatherlink.com 1.10,2013-02-20 23:15:00,
2013-02-20 18:30:00,72.3,65.0,30.06,East,101,0.0,0.0,77,0.00,,,0.01,weatherlink.com 1.10,2013-02-20 23:30:00,
2013-02-20 18:45:00,71.5,64.0,30.06,East,101,0.0,0.0,78,0.00,,,0.01,weatherlink.com 1.10,2013-02-20 23:45:00,
2013-02-20 19:00:00,70.7,64.0,30.06,East,101,0.0,0.0,79,0.00,,,0.01,weatherlink.com 1.10,2013-02-21 00:00:00,
2013-02-20 19:15:00,70.5,64.0,30.07,SSE,162,0.0,0.0,79,0.00,,,0.01,weatherlink.com 1.10,2013-02-21 00:15:00,
2013-02-20 19:30:00,70.1,65.0,30.07,SSE,162,0.0,0.0,83,0.00,,,0.01,weatherlink.com 1.10,2013-02-21 00:30:00,
2013-02-20 19:45:00,70.1,65.0,30.07,ESE,117,0.0,1.0,84,0.00,,,0.01,weatherlink.com 1.10,2013-02-21 00:45:00,
2013-02-20 20:00:00,69.3,65.0,30.07,ESE,117,0.0,0.0,85,0.00,,,0.01,weatherlink.com 1.10,2013-02-21 01:00:00,
2013-02-20 20:15:00,68.1,64.0,30.07,ESE,117,0.0,0.0,86,0.00,,,0.01,weatherlink.com 1.10,2013-02-21 01:15:00,
2013-02-20 20:30:00,67.3,64.0,30.07,ESE,117,0.0,0.0,88,0.00,,,0.01,weatherlink.com 1.10,2013-02-21 01:30:00,
2013-02-20 20:45:00,66.4,64.0,30.08,ESE,117,0.0,0.0,90,0.00,,,0.01,weatherlink.com 1.10,2013-02-21 01:45:00,
2013-02-20 21:00:00,65.9,63.0,30.08,ESE,117,0.0,0.0,91,0.00,,,0.01,weatherlink.com 1.10,2013-02-21 02:00:00,
2013-02-20 21:15:00,65.6,63.0,30.08,ESE,117,0.0,0.0,92,0.00,,,0.01,weatherlink.com 1.10,2013-02-21 02:15:00,
2013-02-20 21:30:00,65.4,63.0,30.08,ESE,117,0.0,0.0,93,0.00,,,0.01,weatherlink.com 1.10,2013-02-21 02:30:00,
2013-02-20 21:45:00,65.1,63.0,30.09,ESE,117,0.0,0.0,93,0.00,,,0.01,weatherlink.com 1.10,2013-02-21 02:45:00,
2013-02-20 22:00:00,64.6,63.0,30.09,ESE,117,0.0,0.0,93,0.00,,,0.01,weatherlink.com 1.10,2013-02-21 03:00:00,
2013-02-20 22:15:00,64.5,63.0,30.09,ESE,117,0.0,0.0,93,0.00,,,0.01,weatherlink.com 1.10,2013-02-21 03:15:00,
2013-02-20 22:30:00,64.2,63.0,30.09,ESE,117,0.0,0.0,94,0.00,,,0.01,weatherlink.com 1.10,2013-02-21 03:30:00,
2013-02-20 22:45:00,63.9,62.0,30.09,ESE,117,0.0,0.0,94,0.00,,,0.01,weatherlink.com 1.10,2013-02-21 03:45:00,
2013-02-20 23:00:00,63.7,62.0,30.09,ESE,117,0.0,0.0,94,0.00,,,0.01,weatherlink.com 1.10,2013-02-21 04:00:00,
2013-02-20 23:15:00,63.5,62.0,30.08,ESE,117,0.0,0.0,95,0.00,,,0.01,weatherlink.com 1.10,2013-02-21 04:15:00,
2013-02-20 23:30:00,64.6,64.0,30.08,ESE,117,0.0,0.0,96,0.00,,,0.01,weatherlink.com 1.10,2013-02-21 04:30:00,
2013-02-20 23:45:00,65.8,64.0,30.08,ENE,71,0.0,2.0,95,0.00,,,0.01,weatherlink.com 1.10,2013-02-21 04:45:00,